Time,TemperatureF,DewpointF,PressureIn,WindDirection,WindDirectionDegrees,WindSpeedMPH,WindSpeedGustMPH,Humidity,HourlyPrecipIn,Conditions,Clouds,dailyrainin,SolarRadiationWatts/m^2,SoftwareType,DateUTC
2013-02-03 00:13:00,40.6,38.0,29.99,South,173,4.0,-999.0,89,-99.99,,,0.01,0,weatherlink.com 1.10,2013-02-03 00:13:00,
2013-02-03 00:28:00,40.1,38.0,29.98,South,180,8.0,-999.0,91,-99.99,,,0.03,0,weatherlink.com 1.10,2013-02-03 00:28:00,
2013-02-03 00:43:00,39.9,38.0,29.98,SSW,196,8.0,-999.0,92,-99.99,,,0.05,0,weatherlink.com 1.10,2013-02-03 00:43:00,
2013-02-03 00:58:00,39.4,37.0,29.98,SSW,211,10.0,-999.0,92,-99.99,,,0.07,0,weatherlink.com 1.10,2013-02-03 00:58:00,
2013-02-03 01:13:00,39.0,37.0,29.93,SW,234,8.0,-999.0,93,-99.99,,,0.09,0,weatherlink.com 1.10,2013-02-03 01:13:00,
2013-02-03 01:28:00,39.3,38.0,29.92,WSW,239,10.0,-999.0,94,-99.99,,,0.10,0,weatherlink.com 1.10,2013-02-03 01:28:00,
2013-02-03 01:43:00,39.6,38.0,29.93,SE,142,12.0,-999.0,94,-99.99,,,0.11,0,weatherlink.com 1.10,2013-02-03 01:43:00,
2013-02-03 01:58:00,39.3,38.0,29.91,South,188,9.0,-999.0,94,-99.99,,,0.13,0,weatherlink.com 1.10,2013-02-03 01:58:00,
2013-02-03 02:13:00,39.4,38.0,29.90,SSE,157,8.0,-999.0,94,-99.99,,,0.16,0,weatherlink.com 1.10,2013-02-03 02:13:00,
2013-02-03 02:28:00,39.9,39.0,29.89,South,187,8.0,-999.0,95,-99.99,,,0.17,0,weatherlink.com 1.10,2013-02-03 02:28:00,
2013-02-03 02:43:00,40.4,39.0,29.88,South,173,11.0,-999.0,95,-99.99,,,0.17,0,weatherlink.com 1.10,2013-02-03 02:43:00,
2013-02-03 02:58:00,40.8,40.0,29.87,SW,216,10.0,-999.0,96,-99.99,,,0.17,0,weatherlink.com 1.10,2013-02-03 02:58:00,
2013-02-03 03:13:00,41.2,40.0,29.85,South,181,13.0,-999.0,96,-99.99,,,0.18,0,weatherlink.com 1.10,2013-02-03 03:13:00,
2013-02-03 03:29:00,41.7,41.0,29.84,SSW,194,8.0,-999.0,96,-99.99,,,0.18,0,weatherlink.com 1.10,2013-02-03 03:29:00,
2013-02-03 03:43:00,42.0,41.0,29.83,SW,219,11.0,-999.0,96,-99.99,,,0.18,0,weatherlink.com 1.10,2013-02-03 03:43:00,
2013-02-03 03:59:00,42.4,41.0,29.82,SSW,211,10.0,-999.0,96,-99.99,,,0.18,0,weatherlink.com 1.10,2013-02-03 03:59:00,
2013-02-03 04:13:00,42.8,42.0,29.80,SSW,192,12.0,-999.0,96,-99.99,,,0.18,0,weatherlink.com 1.10,2013-02-03 04:13:00,
2013-02-03 04:29:00,43.0,42.0,29.79,SSW,207,8.0,-999.0,97,-99.99,,,0.19,0,weatherlink.com 1.10,2013-02-03 04:29:00,
2013-02-03 04:43:00,43.5,43.0,29.79,WSW,238,3.0,-999.0,97,-99.99,,,0.20,0,weatherlink.com 1.10,2013-02-03 04:43:00,
2013-02-03 04:59:00,44.0,43.0,29.79,SW,236,7.0,-999.0,97,-99.99,,,0.20,0,weatherlink.com 1.10,2013-02-03 04:59:00,
2013-02-03 05:14:00,44.8,44.0,29.78,SW,223,6.0,-999.0,97,-99.99,,,0.20,0,weatherlink.com 1.10,2013-02-03 05:14:00,
2013-02-03 05:29:00,45.7,45.0,29.77,SW,234,6.0,-999.0,97,-99.99,,,0.20,0,weatherlink.com 1.10,2013-02-03 05:29:00,
2013-02-03 05:44:00,47.1,46.0,29.77,SW,229,11.0,-999.0,97,-99.99,,,0.20,0,weatherlink.com 1.10,2013-02-03 05:44:00,
2013-02-03 05:59:00,47.6,47.0,29.77,West,265,16.0,-999.0,96,-99.99,,,0.20,0,weatherlink.com 1.10,2013-02-03 05:59:00,
2013-02-03 06:14:00,47.9,47.0,29.77,WSW,244,16.0,-999.0,95,-99.99,,,0.20,0,weatherlink.com 1.10,2013-02-03 06:14:00,
2013-02-03 06:29:00,48.1,47.0,29.76,West,276,13.0,-999.0,94,-99.99,,,0.20,0,weatherlink.com 1.10,2013-02-03 06:29:00,
2013-02-03 06:44:00,48.1,46.0,29.76,West,277,14.0,-999.0,92,-99.99,,,0.20,0,weatherlink.com 1.10,2013-02-03 06:44:00,
2013-02-03 06:59:00,48.0,46.0,29.76,West,270,11.0,-999.0,91,-99.99,,,0.20,0,weatherlink.com 1.10,2013-02-03 06:59:00,
2013-02-03 07:14:00,48.1,46.0,29.76,West,279,6.0,-999.0,92,-99.99,,,0.20,0,weatherlink.com 1.10,2013-02-03 07:14:00,
2013-02-03 07:29:00,48.0,46.0,29.76,WNW,293,14.0,-999.0,93,-99.99,,,0.20,0,weatherlink.com 1.10,2013-02-03 07:29:00,
2013-02-03 07:44:00,47.5,46.0,29.76,WNW,293,14.0,-999.0,94,-99.99,,,0.20,0,weatherlink.com 1.10,2013-02-03 07:44:00,
2013-02-03 07:59:00,47.3,46.0,29.76,WSW,258,11.0,-999.0,94,-99.99,,,0.20,0,weatherlink.com 1.10,2013-02-03 07:59:00,
2013-02-03 08:14:00,47.1,46.0,29.76,WNW,300,12.0,-999.0,94,-99.99,,,0.20,0,weatherlink.com 1.10,2013-02-03 08:14:00,
2013-02-03 08:29:00,47.0,45.0,29.75,WNW,291,9.0,-999.0,94,-99.99,,,0.20,7,weatherlink.com 1.10,2013-02-03 08:29:00,
2013-02-03 08:44:00,46.8,45.0,29.75,WNW,290,15.0,-999.0,93,-99.99,,,0.20,12,weatherlink.com 1.10,2013-02-03 08:44:00,
2013-02-03 08:59:00,46.7,45.0,29.76,WNW,294,12.0,-999.0,92,-99.99,,,0.20,25,weatherlink.com 1.10,2013-02-03 08:59:00,
2013-02-03 09:14:00,46.7,45.0,29.76,NW,304,8.0,-999.0,92,-99.99,,,0.20,53,weatherlink.com 1.10,2013-02-03 09:14:00,
2013-02-03 09:29:00,47.1,45.0,29.76,West,267,11.0,-999.0,92,-99.99,,,0.20,21,weatherlink.com 1.10,2013-02-03 09:29:00,
2013-02-03 09:44:00,46.9,45.0,29.76,West,267,7.0,-999.0,93,-99.99,,,0.20,39,weatherlink.com 1.10,2013-02-03 09:44:00,
2013-02-03 09:59:00,46.9,45.0,29.76,WNW,292,12.0,-999.0,92,-99.99,,,0.20,79,weatherlink.com 1.10,2013-02-03 09:59:00,
2013-02-03 10:14:00,47.1,44.0,29.77,West,281,10.0,-999.0,90,-99.99,,,0.20,93,weatherlink.com 1.10,2013-02-03 10:14:00,
2013-02-03 10:29:00,47.3,45.0,29.76,West,269,12.0,-999.0,90,-99.99,,,0.20,109,weatherlink.com 1.10,2013-02-03 10:29:00,
2013-02-03 10:44:00,47.5,45.0,29.76,WNW,286,7.0,-999.0,90,-99.99,,,0.20,90,weatherlink.com 1.10,2013-02-03 10:44:00,
2013-02-03 10:59:00,47.9,46.0,29.76,West,265,14.0,-999.0,91,-99.99,,,0.20,107,weatherlink.com 1.10,2013-02-03 10:59:00,
2013-02-03 11:14:00,48.2,46.0,29.75,WNW,292,12.0,-999.0,90,-99.99,,,0.20,127,weatherlink.com 1.10,2013-02-03 11:14:00,
2013-02-03 11:29:00,48.4,46.0,29.75,WSW,249,8.0,-999.0,90,-99.99,,,0.20,128,weatherlink.com 1.10,2013-02-03 11:29:00,
2013-02-03 11:44:00,48.4,45.0,29.76,SSW,209,8.0,-999.0,89,-99.99,,,0.20,109,weatherlink.com 1.10,2013-02-03 11:44:00,
2013-02-03 12:00:00,48.3,45.0,29.77,West,271,9.0,-999.0,88,-99.99,,,0.20,123,weatherlink.com 1.10,2013-02-03 12:00:00,
2013-02-03 12:15:00,48.4,45.0,29.77,WNW,286,11.0,-999.0,88,-99.99,,,0.20,116,weatherlink.com 1.10,2013-02-03 12:15:00,
2013-02-03 12:29:00,48.4,45.0,29.77,WNW,288,10.0,-999.0,88,-99.99,,,0.20,90,weatherlink.com 1.10,2013-02-03 12:29:00,
2013-02-03 12:44:00,48.5,45.0,29.76,West,265,8.0,-999.0,88,-99.99,,,0.20,86,weatherlink.com 1.10,2013-02-03 12:44:00,
2013-02-03 13:00:00,48.9,46.0,29.76,WNW,302,15.0,-999.0,90,-99.99,,,0.20,218,weatherlink.com 1.10,2013-02-03 13:00:00,
2013-02-03 13:14:00,48.7,46.0,29.76,SW,223,13.0,-999.0,89,-99.99,,,0.20,123,weatherlink.com 1.10,2013-02-03 13:14:00,
2013-02-03 13:29:00,48.5,45.0,29.75,WNW,286,6.0,-999.0,88,-99.99,,,0.20,113,weatherlink.com 1.10,2013-02-03 13:29:00,
2013-02-03 13:44:00,48.5,45.0,29.74,WSW,242,10.0,-999.0,87,-99.99,,,0.20,113,weatherlink.com 1.10,2013-02-03 13:44:00,
2013-02-03 13:59:00,48.8,45.0,29.73,WSW,244,5.0,-999.0,87,-99.99,,,0.20,130,weatherlink.com 1.10,2013-02-03 13:59:00,
2013-02-03 14:14:00,48.7,45.0,29.73,West,275,13.0,-999.0,88,-99.99,,,0.20,116,weatherlink.com 1.10,2013-02-03 14:14:00,
2013-02-03 14:30:00,48.6,46.0,29.73,West,270,6.0,-999.0,89,-99.99,,,0.20,84,weatherlink.com 1.10,2013-02-03 14:30:00,
2013-02-03 14:44:00,48.3,45.0,29.72,WSW,254,9.0,-999.0,89,-99.99,,,0.20,109,weatherlink.com 1.10,2013-02-03 14:44:00,
2013-02-03 15:00:00,48.1,45.0,29.71,SW,223,11.0,-999.0,89,-99.99,,,0.20,58,weatherlink.com 1.10,2013-02-03 15:00:00,
2013-02-03 15:14:00,48.0,45.0,29.72,NW,305,5.0,-999.0,90,-99.99,,,0.20,46,weatherlink.com 1.10,2013-02-03 15:14:00,
2013-02-03 15:30:00,47.9,45.0,29.71,West,278,12.0,-999.0,90,-99.99,,,0.20,32,weatherlink.com 1.10,2013-02-03 15:30:00,
2013-02-03 15:45:00,47.9,45.0,29.70,West,259,11.0,-999.0,89,-99.99,,,0.20,23,weatherlink.com 1.10,2013-02-03 15:45:00,
2013-02-03 16:00:00,47.9,45.0,29.70,West,275,9.0,-999.0,89,-99.99,,,0.20,21,weatherlink.com 1.10,2013-02-03 16:00:00,
2013-02-03 16:15:00,47.8,45.0,29.70,West,275,11.0,-999.0,90,-99.99,,,0.20,5,weatherlink.com 1.10,2013-02-03 16:15:00,
2013-02-03 16:30:00,47.9,45.0,29.70,West,260,10.0,-999.0,90,-99.99,,,0.20,0,weatherlink.com 1.10,2013-02-03 16:30:00,
2013-02-03 16:45:00,48.0,45.0,29.69,SSW,196,8.0,-999.0,90,-99.99,,,0.20,0,weatherlink.com 1.10,2013-02-03 16:45:00,
2013-02-03 17:00:00,48.0,45.0,29.69,WSW,256,6.0,-999.0,89,-99.99,,,0.20,0,weatherlink.com 1.10,2013-02-03 17:00:00,
2013-02-03 17:15:00,48.0,45.0,29.68,WSW,251,6.0,-999.0,89,-99.99,,,0.20,0,weatherlink.com 1.10,2013-02-03 17:15:00,
2013-02-03 17:30:00,47.9,45.0,29.67,West,267,5.0,-999.0,89,-99.99,,,0.20,0,weatherlink.com 1.10,2013-02-03 17:30:00,
2013-02-03 17:45:00,47.9,45.0,29.67,SSW,202,6.0,-999.0,90,-99.99,,,0.20,0,weatherlink.com 1.10,2013-02-03 17:45:00,
2013-02-03 18:00:00,47.7,46.0,29.66,West,266,4.0,-999.0,92,-99.99,,,0.22,0,weatherlink.com 1.10,2013-02-03 18:00:00,
2013-02-03 18:15:00,47.4,46.0,29.65,SW,234,3.0,-999.0,94,-99.99,,,0.23,0,weatherlink.com 1.10,2013-02-03 18:15:00,
2013-02-03 18:30:00,47.3,46.0,29.64,SSE,167,8.0,-999.0,95,-99.99,,,0.24,0,weatherlink.com 1.10,2013-02-03 18:30:00,
2013-02-03 18:45:00,47.3,46.0,29.64,SW,224,3.0,-999.0,95,-99.99,,,0.24,0,weatherlink.com 1.10,2013-02-03 18:45:00,
2013-02-03 19:00:00,47.9,47.0,29.63,WSW,257,7.0,-999.0,95,-99.99,,,0.24,0,weatherlink.com 1.10,2013-02-03 19:00:00,
2013-02-03 19:15:00,48.3,47.0,29.62,WSW,253,5.0,-999.0,95,-99.99,,,0.24,0,weatherlink.com 1.10,2013-02-03 19:15:00,
2013-02-03 19:30:00,48.7,47.0,29.61,West,275,15.0,-999.0,94,-99.99,,,0.24,0,weatherlink.com 1.10,2013-02-03 19:30:00,
2013-02-03 19:45:00,48.7,47.0,29.59,WSW,258,26.0,-999.0,94,-99.99,,,0.24,0,weatherlink.com 1.10,2013-02-03 19:45:00,
2013-02-03 20:00:00,48.5,46.0,29.59,West,276,9.0,-999.0,92,-99.99,,,0.24,0,weatherlink.com 1.10,2013-02-03 20:00:00,
2013-02-03 20:15:00,48.6,46.0,29.58,West,264,12.0,-999.0,91,-99.99,,,0.24,0,weatherlink.com 1.10,2013-02-03 20:15:00,
2013-02-03 20:31:00,48.8,46.0,29.60,WNW,282,10.0,-999.0,91,-99.99,,,0.24,0,weatherlink.com 1.10,2013-02-03 20:31:00,
2013-02-03 20:45:00,49.0,47.0,29.60,WSW,246,7.0,-999.0,91,-99.99,,,0.24,0,weatherlink.com 1.10,2013-02-03 20:45:00,
2013-02-03 21:00:00,48.4,47.0,29.58,SSW,205,8.0,-999.0,93,-99.99,,,0.24,0,weatherlink.com 1.10,2013-02-03 21:00:00,
2013-02-03 21:15:00,48.0,46.0,29.57,SW,232,14.0,-999.0,94,-99.99,,,0.26,0,weatherlink.com 1.10,2013-02-03 21:15:00,
2013-02-03 21:31:00,47.6,46.0,29.57,SSW,193,3.0,-999.0,95,-99.99,,,0.30,0,weatherlink.com 1.10,2013-02-03 21:31:00,
2013-02-03 21:46:00,47.4,46.0,29.57,SSW,207,6.0,-999.0,96,-99.99,,,0.34,0,weatherlink.com 1.10,2013-02-03 21:46:00,
2013-02-03 22:00:00,47.5,47.0,29.56,South,183,4.0,-999.0,96,-99.99,,,0.35,0,weatherlink.com 1.10,2013-02-03 22:00:00,
2013-02-03 22:15:00,47.6,47.0,29.55,SSW,193,11.0,-999.0,96,-99.99,,,0.35,0,weatherlink.com 1.10,2013-02-03 22:15:00,
2013-02-03 22:31:00,48.0,47.0,29.55,SSW,192,8.0,-999.0,97,-99.99,,,0.36,0,weatherlink.com 1.10,2013-02-03 22:31:00,
2013-02-03 22:45:00,48.3,48.0,29.55,SW,223,9.0,-999.0,100,-99.99,,,0.36,0,weatherlink.com 1.10,2013-02-03 22:45:00,
2013-02-03 23:01:00,48.5,48.0,29.55,WSW,246,14.0,-999.0,97,-99.99,,,0.37,0,weatherlink.com 1.10,2013-02-03 23:01:00,
2013-02-03 23:16:00,49.5,48.0,29.55,West,278,7.0,-999.0,96,-99.99,,,0.37,0,weatherlink.com 1.10,2013-02-03 23:16:00,
2013-02-03 23:30:00,49.6,48.0,29.53,WSW,248,9.0,-999.0,95,-99.99,,,0.37,0,weatherlink.com 1.10,2013-02-03 23:30:00,
2013-02-03 23:45:00,49.7,48.0,29.53,West,259,11.0,-999.0,94,-99.99,,,0.37,0,weatherlink.com 1.10,2013-02-03 23:45:00,